This demonstration page uses our WeatherBlox Daily Observations layout. Learn more.

Left ArrowRight Arrow

39.29038, -76.61219

Hourly Observations for July 10, 2021

Temp ( °F °C ) Dew Point ( °F °C ) Humidity (%) Winds ( mph kmh ) Pressure ( in mb ) Visibility ( mi km ) Precip ( " mm )
12:54 am 00:54 Partly Cloudy 73 22.8 68 20 84 84 WNW 5 7 29.94 1014 10 16 N/A
1:54 am 01:54 Partly Cloudy 74 23.3 65 18.3 74 74 NW 8 13 29.93 1014 10 16 N/A
2:54 am 02:54 Partly Cloudy 74 23.3 64 17.8 71 71 NW 7 11 29.93 1014 10 16 N/A
3:54 am 03:54 Partly Cloudy 73 22.8 62 16.7 69 69 NW 7 11 29.95 1014 10 16 N/A
4:54 am 04:54 Mostly Clear 71 21.7 61 16.1 71 71 N N/A 29.95 1014 10 16 N/A
5:54 am 05:54 Partly Cloudy 69 20.6 62 16.7 78 78 WNW 3 6 29.97 1015 10 16 N/A
6:54 am 06:54 Mostly Cloudy 70 21.1 62 16.7 76 76 WNW 6 9 29.99 1016 10 16 N/A
7:54 am 07:54 Mostly Cloudy 71 21.7 59 15 66 66 NW 7 11 30.00 1016 10 16 N/A
8:54 am 08:54 Mostly Cloudy 74 23.3 59 15 60 60 NNW 8 13 30.00 1016 10 16 N/A
9:54 am 09:54 Mostly Cloudy 75 23.9 60 15.6 60 60 NW 6 9 30.00 1016 10 16 N/A
10:54 am 10:54 Mostly Cloudy 77 25 62 16.7 60 60 WNW 8 13 30.01 1016 10 16 N/A
11:54 am 11:54 Mostly Cloudy 78 25.6 62 16.7 58 58 WNW 8 13 30.03 1017 10 16 N/A
12:54 pm 12:54 Mostly Cloudy 80 26.7 62 16.7 54 54 WNW 7 11 30.03 1017 10 16 N/A
1:54 pm 13:54 Mostly Cloudy 82 27.8 63 17.2 53 53 W 7 11 30.01 1016 10 16 N/A
2:54 pm 14:54 Mostly Cloudy 81 27.2 62 16.7 53 53 W 10 17 30.01 1016 10 16 N/A
3:54 pm 15:54 Mostly Cloudy 83 28.3 61 16.1 48 48 NNW 7 11 29.99 1016 10 16 N/A
4:54 pm 16:54 Mostly Cloudy 85 29.4 61 16.1 45 45 NNW 7 11 29.98 1015 10 16 N/A
5:54 pm 17:54 Mostly Cloudy 84 28.9 62 16.7 48 48 NNW 7 11 29.98 1015 10 16 N/A
6:54 pm 18:54 Mostly Cloudy 82 27.8 61 16.1 49 49 WNW 7 11 29.98 1015 10 16 N/A
7:54 pm 19:54 Mostly Cloudy 80 26.7 61 16.1 52 52 VRB 6 9 29.99 1016 10 16 N/A
8:54 pm 20:54 Mostly Cloudy 79 26.1 62 16.7 56 56 N N/A 30.00 1016 10 16 N/A
9:54 pm 21:54 Mostly Cloudy 79 26.1 62 16.7 56 56 N N/A 30.03 1017 10 16 N/A
10:54 pm 22:54 Mostly Cloudy 77 25 63 17.2 62 62 N N/A 30.04 1017 10 16 N/A
11:54 pm 23:54 Mostly Cloudy 74 23.3 63 17.2 69 69 N N/A 30.04 1017 10 16 N/A

Powered by AerisWeather